EW1872 Weather Reports


Display with metric or nautical units.
time (UTC)temp
F
wind
direction
speed
MPH
gust
MPH
rain 1hr
in
rain 24hr
in
rain mn
in
humidity
%
barometer
mb
20260506073043 0 170 12.0 16.0 0.00 0.00 0.00 1007.9
20260506071541 0 173 8.0 12.0 0.00 0.00 0.00 1008.0
20260506061527 0 123 5.0 10.0 0.00 0.00 0.00 1008.3
20260506044509 0 184 6.0 11.0 0.00 0.00 0.00 1008.7
20260506043001 0 182 3.0 7.0 0.00 0.00 0.00 1009.2
20260506041606 0 155 5.0 7.0 0.00 0.00 0.00 1009.0
20260506040053 0 133 12.0 16.0 0.00 0.00 0.00 1009.1
20260506034553 0 165 8.0 12.0 0.00 0.00 0.00 1009.0
20260506033045 0 189 7.0 10.0 0.00 0.00 0.00 1009.0
20260506031541 0 158 8.0 14.0 0.00 0.00 0.00 1009.1
20260506030036 0 180 8.0 12.0 0.00 0.00 0.00 1009.0
20260506024537 0 186 11.0 15.0 0.00 0.00 0.00 1008.9
20260506023028 0 188 9.0 15.0 0.00 0.00 0.00 1008.9
20260506021524 0 194 6.0 11.0 0.00 0.00 0.00 1008.8
20260506020023 0 169 5.0 10.0 0.00 0.00 0.00 1009.2
20260506014518 0 158 9.0 13.0 0.00 0.00 0.00 1009.0
20260506013024 0 182 8.0 11.0 0.00 0.00 0.00 1009.1
20260506011511 0 190 4.0 6.0 0.00 0.00 0.00 1009.0
20260506010006 0 207 0.0 10.0 0.00 0.00 0.00 1009.1
20260506004501 0 182 6.0 9.0 0.00 0.00 0.00 1009.1
20260506003057 0 329 4.0 8.0 0.00 0.00 0.00 1008.3
20260506001612 0 276 5.0 14.0 0.00 0.00 0.00 1008.7
20260506000049 0 168 1.0 4.0 0.00 0.00 0.00 1008.2
20260505234549 0 212 1.0 3.0 0.00 0.00 0.00 1008.2
20260505233045 0 210 2.0 7.0 0.00 0.00 0.00 1007.7
20260505231541 0 304 1.0 5.0 0.00 0.00 0.00 1007.5
20260505230036 0 294 3.0 9.0 0.00 0.00 0.00 1007.2
20260505224536 0 333 7.0 14.0 0.00 0.00 0.00 1007.0
20260505223031 0 360 9.0 18.0 0.00 0.00 0.00 1006.4
20260505221519 0 288 6.0 12.0 0.00 0.00 0.00 1006.3
20260505220026 0 292 3.0 9.0 0.00 0.00 0.00 1006.1
20260505214514 0 291 2.0 8.0 0.00 0.00 0.00 1005.8
20260505213006 0 302 8.0 11.0 0.00 0.00 0.00 1005.6
20260505211502 0 325 5.0 11.0 0.00 0.00 0.00 1005.2
20260505210106 0 287 4.0 11.0 0.00 0.00 0.00 1004.9
20260505204553 0 316 6.0 13.0 0.00 0.00 0.00 1004.6
20260505203050 0 287 5.0 12.0 0.00 0.00 0.00 1004.4
20260505201550 0 360 7.0 14.0 0.00 0.00 0.00 1003.9
20260505200038 0 78 3.0 9.0 0.00 0.00 0.00 1003.4
20260505194534 0 355 8.0 15.0 0.00 0.00 0.00 1003.0
20260505193042 0 295 9.0 17.0 0.00 0.00 0.00 1002.7
20260505191524 0 350 6.0 15.0 0.00 0.00 0.00 1002.4
20260505190031 0 28 10.0 16.0 0.00 0.00 0.00 1002.1
20260505184518 0 320 8.0 21.0 0.00 0.00 0.00 1001.9
20260505183016 0 360 6.0 16.0 0.00 0.00 0.00 1001.4
20260505181507 0 263 9.0 18.0 0.00 0.00 0.00 1001.1
20260505180001 0 212 8.0 18.0 0.00 0.00 0.00 1000.6
20260505174557 0 300 10.0 22.0 0.00 0.00 0.00 1000.3
20260505173052 0 360 12.0 19.0 0.00 0.00 0.00 1000.1
20260505171548 0 350 7.0 19.0 0.00 0.00 0.00 999.6
20260505170043 0 244 6.0 15.0 0.00 0.00 0.00 999.3
20260505164539 0 260 5.0 19.0 0.00 0.00 0.00 999.1
20260505163033 0 338 9.0 19.0 0.00 0.00 0.00 998.8
20260505161529 0 121 9.0 20.0 0.00 0.00 0.00 998.7
20260505153024 0 225 8.0 17.0 0.00 0.00 0.00 997.7
20260505151510 0 276 9.0 23.0 0.00 0.00 0.00 997.3
20260505124522 -90 169 2.0 11.0 0.00 0.00 0.00 994.7
20260505123021 -90 342 4.0 8.0 0.00 0.00 0.00 994.3
20260505121515 -90 67 4.0 10.0 0.00 0.00 0.00 994.0
20260505120009 -90 157 3.0 9.0 0.00 0.00 0.00 993.7
20260505114503 -90 338 2.0 6.0 0.00 0.00 0.00 993.1
20260505113059 -90 276 4.0 11.0 0.00 0.00 0.00 992.9
20260505111559 -90 141 4.0 12.0 0.00 0.00 0.00 992.7
20260505101539 -90 186 9.0 16.0 0.00 0.00 0.00 991.9
20260505100033 -90 179 10.0 18.0 0.00 0.00 0.00 991.6
20260505094528 -90 178 12.0 18.0 0.00 0.00 0.00 991.4
20260505093021 -90 189 11.0 16.0 0.00 0.00 0.00 991.2
20260505091522 -90 173 11.0 18.0 0.00 0.00 0.00 990.8
20260505090011 -90 192 12.0 20.0 0.00 0.00 0.00 990.7
20260505084509 -90 170 10.0 18.0 0.00 0.00 0.00 990.3
20260505083001 -90 182 7.0 17.0 0.00 0.00 0.00 990.1
20260505081558 -90 166 10.0 18.0 0.00 0.00 0.00 990.0
20260505080056 -90 175 12.0 20.0 0.00 0.00 0.00 989.8
20260505074547 -90 182 12.0 18.0 0.00 0.00 0.00 989.7